Regional Weather Roundup
Issued by NWS

Home | Current Version | Previous Version | Graphics & Text | Print | Product List | Glossary Off
Versions: 1 2 3 4 5 6 7 8 9 10 11 12 13 14 15 16 17 18 19 20 21 22 23 24 25 26 27 28 29 30 31 32 33 34 35 36 37 38 39 40 41 42 43 44 45 46 47 48 49 50

000
ASUS43 KTOP 251108
RWRKS

WEATHER ROUNDUP FOR KANSAS
NATIONAL WEATHER SERVICE GOODLAND KS
600 AM CDT MON SEP 25 2017

NOTE:  "FAIR" INDICATES FEW OR NO CLOUDS BELOW 12,000 FEET WITH NO
SIGNIFICANT WEATHER AND/OR OBSTRUCTIONS TO VISIBILITY.

KSZ001>006-013>018-027>032-041>047-251200-
NORTHWEST KANSAS

CITY           SKY/WX    TMP DP  RH WIND       PRES   REMARKS
GOODLAND       CLOUDY    49  49 100 N13       30.00R
HAYS           CLOUDY    63  63 100 NW8       29.90R FOG
HILL CITY      CLOUDY    56  56 100 N14       29.95R
RUSSELL        LGT RAIN  64  63  96 NW6       29.88R
$$

KSZ061>065-074>080-084>089-251200-
SOUTHWEST KANSAS

CITY           SKY/WX    TMP DP  RH WIND       PRES   REMARKS
DODGE CITY     MOCLDY    67  65  93 S5        29.88S
ELKHART          N/A     57  60 100 NW7         N/A
GARDEN CITY    TSTM      60  60 100 NW9       29.92R FOG
GREAT BEND     LGT RAIN  69  65  86 S10       29.88R
LIBERAL        CLOUDY    66  63  90 S6        29.88F
PRATT          LGT RAIN  68  63  83 SW8       29.89R
$$

KSZ066>073-081>083-090>101-251200-
SOUTHEAST KANSAS

CITY           SKY/WX    TMP DP  RH WIND       PRES   REMARKS
CHANUTE        CLEAR     68  65  90 SE6       29.93S
COFFEYVILLE    CLEAR     68  65  90 SE5       29.92S
HUTCHINSON     MOCLDY    71  66  84 SE12      29.87F
MEDICINE LODGE   N/A     72  62  71 S8        29.87S
NEWTON         CLOUDY    68  64  87 SE8       29.90S
PARSONS        CLEAR     66  64  93 CALM      29.94S
WICHITA INTL   MOCLDY    70  66  87 S9        29.88S
WICHITA JABRA  CLOUDY    70  66  87 S9        29.89S
WICHITA MCCONL PTCLDY    70  64  80 S8        29.89S
WINFIELD       CLOUDY    73  66  78 S8        29.91R
$$

KSZ007>012-019>026-033>040-048>060-102>105-251200-
NORTHEAST KANSAS

CITY           SKY/WX    TMP DP  RH WIND       PRES   REMARKS
CONCORDIA      CLOUDY    63  63 100 NE5       29.92R THUNDER
EMPORIA        CLEAR     68  64  87 SE10      29.91S
LAWRENCE       CLEAR     68  66  93 E5        29.91F
MANHATTAN      MOCLDY    73  65  75 SW5       29.88S
MARYSVILLE     CLOUDY    68  66  94 NW3       29.91R
OLATHE IND     CLEAR     68  64  87 S7        29.93F
OLATHE EXE     CLEAR     66  65  96 S5        29.93F
SALINA         CLOUDY    72  66  81 SE9       29.86F
TOPEKA BILLARD CLEAR     70  67  90 E5        29.90F
TOPEKA FORBES  CLEAR     69  66  90 SE6       29.91F
$$




USA.gov is the U.S. government's official web portal to all federal, state and local government web resources and services.